TimeEST,TemperatureF,Dew PointF,Humidity,Sea Level PressureIn,VisibilityMPH,Wind Direction,Wind SpeedMPH,Gust SpeedMPH,PrecipitationIn,Events,Conditions,WindDirDegrees,DateUTC
12:14 AM,27.1,23.5,86,30.39,10.0,Calm,Calm,-,N/A,,Clear,0,2013-01-10 05:14:00
12:34 AM,26.4,24.6,93,30.40,10.0,Calm,Calm,-,N/A,,Clear,0,2013-01-10 05:34:00
12:54 AM,25.5,22.8,89,30.40,10.0,Calm,Calm,-,N/A,,Clear,0,2013-01-10 05:54:00
1:34 AM,25.3,23.7,94,30.42,10.0,Calm,Calm,-,N/A,,Clear,0,2013-01-10 06:34:00
1:54 AM,24.8,23.0,93,30.45,10.0,Calm,Calm,-,N/A,,Clear,0,2013-01-10 06:54:00
2:14 AM,24.3,22.1,91,30.47,10.0,Calm,Calm,-,N/A,,Clear,0,2013-01-10 07:14:00
2:34 AM,25.0,22.8,91,30.48,10.0,Calm,Calm,-,N/A,,Clear,0,2013-01-10 07:34:00
2:54 AM,26.8,24.6,92,30.50,10.0,Calm,Calm,-,N/A,,Clear,0,2013-01-10 07:54:00
3:14 AM,24.8,22.6,91,30.50,10.0,Calm,Calm,-,N/A,,Clear,0,2013-01-10 08:14:00
3:34 AM,23.7,22.1,94,30.51,10.0,Calm,Calm,-,N/A,,Clear,0,2013-01-10 08:34:00
3:54 AM,24.8,23.2,94,30.51,10.0,Calm,Calm,-,N/A,,Clear,0,2013-01-10 08:54:00
4:14 AM,24.3,23.0,95,30.51,10.0,Calm,Calm,-,N/A,,Clear,0,2013-01-10 09:14:00
4:34 AM,21.9,20.1,93,30.50,10.0,Calm,Calm,-,N/A,,Clear,0,2013-01-10 09:34:00
5:14 AM,23.0,22.1,96,30.49,10.0,Calm,Calm,-,N/A,,Clear,0,2013-01-10 10:14:00
5:34 AM,23.0,21.9,96,30.50,10.0,Calm,Calm,-,N/A,,Clear,0,2013-01-10 10:34:00
5:54 AM,22.5,21.6,96,30.50,10.0,Calm,Calm,-,N/A,,Clear,0,2013-01-10 10:54:00
6:14 AM,22.8,21.9,96,30.50,10.0,Calm,Calm,-,N/A,,Clear,0,2013-01-10 11:14:00
6:34 AM,22.1,21.2,96,30.52,10.0,Calm,Calm,-,N/A,,Clear,0,2013-01-10 11:34:00
6:54 AM,22.1,21.2,96,30.52,10.0,Calm,Calm,-,N/A,,Clear,0,2013-01-10 11:54:00
7:14 AM,21.9,21.0,96,30.53,10.0,Calm,Calm,-,N/A,,Clear,0,2013-01-10 12:14:00
7:34 AM,21.7,20.7,96,30.54,10.0,Calm,Calm,-,N/A,,Clear,0,2013-01-10 12:34:00
7:54 AM,22.1,21.2,96,30.54,10.0,Calm,Calm,-,N/A,,Clear,0,2013-01-10 12:54:00
8:14 AM,21.2,20.3,96,30.54,10.0,Calm,Calm,-,N/A,,Clear,0,2013-01-10 13:14:00
8:20 AM,21.2,20.3,96,30.54,10.0,Calm,Calm,-,N/A,,Clear,0,2013-01-10 13:20:00
8:54 AM,21.6,20.7,96,30.54,10.0,Calm,Calm,-,N/A,,Clear,0,2013-01-10 13:54:00
9:14 AM,23.0,22.1,96,30.53,10.0,Calm,Calm,-,N/A,,Clear,0,2013-01-10 14:14:00
9:34 AM,25.7,24.8,96,30.53,10.0,Calm,Calm,-,N/A,,Clear,0,2013-01-10 14:34:00
9:54 AM,28.6,26.8,93,30.53,10.0,Calm,Calm,-,N/A,,Clear,0,2013-01-10 14:54:00
10:14 AM,31.8,28.8,88,30.53,10.0,Calm,Calm,-,N/A,,Clear,0,2013-01-10 15:14:00
10:54 AM,35.8,28.2,74,30.53,10.0,Calm,Calm,-,N/A,,Clear,0,2013-01-10 15:54:00
11:14 AM,37.6,29.3,72,30.52,10.0,SE,5.8,-,N/A,,Clear,140,2013-01-10 16:14:00
11:34 AM,38.5,28.8,68,30.52,10.0,South,5.8,-,N/A,,Clear,170,2013-01-10 16:34:00
11:54 AM,39.2,28.6,66,30.51,10.0,SSE,5.8,-,N/A,,Clear,150,2013-01-10 16:54:00
12:14 PM,39.7,28.4,64,30.50,10.0,SSE,5.8,-,N/A,,Clear,160,2013-01-10 17:14:00
12:34 PM,40.6,28.4,62,30.48,10.0,SSE,5.8,-,N/A,,Clear,160,2013-01-10 17:34:00
12:55 PM,41.2,28.2,60,30.47,10.0,SE,5.8,-,N/A,,Clear,140,2013-01-10 17:55:00
1:14 PM,42.3,28.0,57,30.46,10.0,SSE,3.5,-,N/A,,Clear,160,2013-01-10 18:14:00
1:34 PM,43.3,27.9,54,30.45,10.0,ESE,6.9,-,N/A,,Clear,120,2013-01-10 18:34:00
1:54 PM,43.5,27.9,54,30.43,10.0,SE,5.8,-,N/A,,Clear,130,2013-01-10 18:54:00
2:34 PM,42.3,28.0,57,30.42,10.0,SE,6.9,-,N/A,,Clear,140,2013-01-10 19:34:00
2:54 PM,43.7,28.4,55,30.41,10.0,SSE,4.6,-,N/A,,Clear,160,2013-01-10 19:54:00
3:14 PM,43.9,28.4,55,30.41,10.0,SSE,4.6,-,N/A,,Clear,160,2013-01-10 20:14:00
3:35 PM,43.0,27.9,55,30.40,10.0,SE,5.8,-,N/A,,Clear,140,2013-01-10 20:35:00
3:54 PM,42.6,27.5,55,30.39,10.0,ESE,6.9,-,N/A,,Clear,110,2013-01-10 20:54:00
4:14 PM,41.9,30.2,63,30.38,10.0,East,4.6,-,N/A,,Clear,80,2013-01-10 21:14:00
4:34 PM,41.0,30.2,65,30.38,10.0,East,4.6,-,N/A,,Clear,90,2013-01-10 21:34:00
4:54 PM,40.3,30.4,68,30.38,10.0,East,5.8,-,N/A,,Clear,90,2013-01-10 21:54:00
5:15 PM,39.9,30.0,68,30.37,10.0,ESE,6.9,-,N/A,,Clear,110,2013-01-10 22:15:00
5:34 PM,39.4,28.8,66,30.37,10.0,East,8.1,-,N/A,,Clear,100,2013-01-10 22:34:00
5:54 PM,38.5,28.8,68,30.36,10.0,ESE,4.6,-,N/A,,Clear,110,2013-01-10 22:54:00
6:15 PM,38.5,28.6,68,30.36,10.0,ESE,5.8,-,N/A,,Clear,110,2013-01-10 23:15:00
6:34 PM,38.5,28.8,68,30.34,10.0,East,5.8,-,N/A,,Clear,100,2013-01-10 23:34:00
6:54 PM,38.5,28.6,68,30.34,10.0,East,6.9,-,N/A,,Clear,90,2013-01-10 23:54:00
7:15 PM,36.9,28.8,72,30.32,10.0,East,6.9,-,N/A,,Clear,90,2013-01-11 00:15:00
7:34 PM,36.7,28.8,73,30.32,10.0,East,8.1,-,N/A,,Clear,100,2013-01-11 00:34:00
7:55 PM,36.5,29.1,75,30.32,10.0,ESE,8.1,-,N/A,,Clear,120,2013-01-11 00:55:00
8:14 PM,36.5,28.9,74,30.30,10.0,ESE,9.2,-,N/A,,Clear,110,2013-01-11 01:14:00
8:34 PM,36.5,28.8,74,30.29,10.0,ESE,8.1,-,N/A,,Clear,110,2013-01-11 01:34:00
8:55 PM,36.0,28.9,76,30.28,10.0,ESE,8.1,-,N/A,,Clear,110,2013-01-11 01:55:00
9:14 PM,35.8,28.9,76,30.27,10.0,ESE,6.9,-,N/A,,Clear,120,2013-01-11 02:14:00
9:54 PM,35.8,29.1,77,30.25,10.0,East,5.8,-,N/A,,Scattered Clouds,100,2013-01-11 02:54:00
10:14 PM,35.6,29.7,79,30.24,10.0,East,6.9,-,N/A,Rain,Light Rain,90,2013-01-11 03:14:00
10:35 PM,35.4,30.0,81,30.22,10.0,East,6.9,-,N/A,,Drizzle,80,2013-01-11 03:35:00
10:54 PM,34.9,31.1,86,30.20,7.0,East,6.9,-,N/A,,Overcast,90,2013-01-11 03:54:00
11:14 PM,34.9,31.6,88,30.19,7.0,East,5.8,-,0.01,,Overcast,100,2013-01-11 04:14:00
11:35 PM,34.7,32.5,92,30.16,4.0,East,8.1,-,0.02,,Overcast,80,2013-01-11 04:35:00
11:54 PM,34.9,32.9,92,30.16,5.0,East,5.8,-,0.03,,Overcast,100,2013-01-11 04:54:00